#timestamp,LO_Frequency,Hit,StdDev 
1516809615.2,286047002.6,N
1516809635.0,286047002.0,N
1516809635.9,286047002.0,N
1516809655.8,286047001.7,N
1516809675.6,286047003.5,N
1516809695.4,286047003.9,N
1516809715.3,286047005.5,Y
1516809735.1,286047003.1,P
1516809755.9,286047005.3,P
1516809775.7,286047002.9,N
1516809795.5,286047005.8,Y
1516809815.4,286047002.6,P
1516809835.2,286047000.4,N
1516809855.1,286047000.3,N
1516809856.0,286047000.3,N
1516809875.8,286047000.1,N
1516809895.6,286047000.6,N
1516809915.5,286047002.8,N
1516809935.3,286046999.8,N
1516809955.1,286047002.6,N
1516809975.9,286047001.3,N
1516809995.7,286047004.3,Y
1516810015.6,286046999.8,P
1516810035.4,286047002.8,P
1516810055.2,286047001.3,N
1516810075.1,286047001.6,N
1516810076.0,286047001.6,N
1516810095.8,286047002.1,N
1516810115.6,286047000.1,N
1516810135.5,286047002.7,N
1516810155.3,286047000.3,N
1516810175.2,286046999.7,N
1516810195.9,286046998.2,N
1516810215.7,286047001.2,N
1516810235.6,286047000.3,N
1516810255.4,286046998.3,N
1516810275.3,286046998.8,N
1516810295.1,286047001.2,N
1516810296.0,286047001.2,N
1516810315.8,286046998.4,N
1516810335.7,286046998.6,N
1516810355.5,286047000.9,N
1516810375.3,286047001.0,N
1516810395.2,286046999.9,N
1516810415.0,286047000.0,N
1516810415.9,286047000.0,N
1516810435.8,286047000.0,N
1516810455.6,286047000.3,N
1516810475.4,286046999.8,N
1516810495.3,286047001.8,N
1516810515.1,286047006.0,Y
1516810535.8,286047003.0,P
1516810555.7,286047005.6,P
1516810575.5,286047003.0,N
1516810595.4,286047004.6,N
1516810615.2,286047004.7,N
1516810635.0,286047002.9,N
1516810635.9,286047002.9,N
1516810655.8,286047007.5,Y
1516810675.6,286047004.4,P
1516810695.5,286047003.7,P
1516810715.3,286047003.9,P
1516810735.1,286047004.0,Y
1516810755.9,286046998.6,P
1516810775.7,286046999.5,N
1516810795.5,286046995.1,N
1516810815.4,286046993.6,N
1516810835.2,286046994.6,N
1516810855.1,286046992.1,N
1516810856.0,286046992.1,N
1516810875.8,286046992.0,N
1516810895.6,286046992.7,N
1516810915.5,286046992.0,N
1516810935.3,286046992.3,N
1516810955.1,286046992.1,N
1516810975.9,286046994.3,N
1516810995.7,286046994.7,N
1516811015.6,286046994.5,N
1516811035.4,286046993.7,N
1516811055.2,286046996.4,N
1516811075.1,286046994.5,N
1516811076.0,286046994.5,N
1516811095.8,286046994.2,N
1516811115.7,286046994.1,N
1516811135.5,286046994.7,N
1516811155.3,286046992.5,N
1516811175.2,286046992.3,N
1516811195.9,286046990.8,Y
1516811215.7,286046995.4,P
1516811235.6,286046997.2,P
1516811255.4,286046997.6,N
1516811275.3,286046999.3,N
1516811295.1,286046997.0,N
1516811296.0,286046997.0,N
1516811315.8,286046997.8,N
1516811335.7,286046997.4,N
1516811355.5,286046996.5,N
1516811375.3,286046998.2,N
1516811395.2,286046998.4,N
1516811415.0,286046998.4,N
1516811415.9,286046998.4,N
1516811435.8,286047000.2,N
1516811455.6,286047004.0,N
1516811475.4,286047003.0,N
1516811495.3,286047001.4,N
1516811515.1,286047002.6,N
1516811535.9,286047000.9,N
1516811555.7,286046999.8,N
1516811575.5,286047001.4,N
1516811595.4,286047001.7,N
1516811615.2,286047001.5,N
1516811635.0,286047002.8,N
1516811635.9,286047002.8,N
1516811655.8,286047000.9,N
1516811675.6,286046998.3,N
1516811695.5,286047000.5,N
1516811715.3,286047000.7,N
1516811735.1,286047000.9,N
1516811755.9,286047000.0,N
1516811775.7,286047002.2,N
1516811795.5,286047001.1,N
1516811815.4,286046999.3,N
1516811835.2,286047000.7,N
1516811855.1,286047000.7,N
1516811856.0,286047000.7,N
1516811875.8,286047001.0,N
1516811895.6,286047000.5,N
1516811915.5,286047000.7,N
1516811935.3,286046999.9,N
1516811955.1,286047000.0,N
1516811975.9,286047002.5,N
1516811995.7,286047002.5,N
1516812015.6,286047002.5,N
1516812035.4,286047001.4,N
1516812055.2,286047001.3,N
1516812075.1,286047002.0,N
1516812076.0,286047002.0,N
1516812095.8,286047003.1,N
1516812115.7,286047003.1,N
1516812135.5,286047005.5,Y
1516812155.3,286047003.6,P
1516812175.2,286047003.0,N
1516812195.0,286047003.7,P
1516812195.9,286047003.7,Y
1516812215.8,286047000.4,P
1516812235.6,286047002.6,N
1516812255.4,286047004.4,P
1516812275.3,286047003.9,N
1516812295.1,286047004.0,N
1516812315.8,286047004.3,Y
1516812335.7,286047001.0,P
1516812355.5,286047000.8,N
1516812375.4,286046998.4,N
1516812395.2,286046999.1,N
1516812415.0,286046998.6,N
1516812415.9,286046998.6,N
1516812435.8,286046998.8,N
1516812455.6,286046998.5,N
1516812475.4,286046996.7,N
1516812495.3,286047000.4,N
1516812515.1,286047000.6,N
1516812535.9,286046999.0,N
1516812555.7,286046996.5,N
1516812575.5,286046998.6,N
1516812595.4,286046998.8,N
1516812615.2,286046998.1,N
1516812635.0,286047000.6,N
1516812635.9,286047000.6,N
1516812655.8,286046998.7,N
1516812675.6,286046996.5,N
1516812695.5,286046996.9,N
1516812745.3,286046996.6,E
1516812755.2,286046999.7,N
1516812775.1,286047001.3,P
1516812776.0,286047001.3,N
1516812795.8,286047004.4,Y
1516812815.7,286047002.1,P
1516812835.5,286047002.7,P
1516812855.3,286047004.0,P
1516812875.2,286047003.6,Y
1516812895.0,286047002.1,P
1516812895.9,286047002.1,P
1516812915.8,286047002.4,P
1516812935.6,286046999.8,N
1516812955.4,286047002.1,N
1516812975.3,286047001.7,N
1516812995.1,286047004.3,Y
1516813015.8,286046999.8,P
1516813035.7,286047000.1,N
1516813055.5,286047000.1,N
1516813075.4,286047000.0,N
1516813095.2,286047002.7,Y
1516813115.0,286047002.8,P
1516813115.9,286047002.8,N
1516813135.8,286046999.9,N
1516813155.6,286047002.2,N
1516813175.5,286047001.8,N
1516813195.3,286047001.8,N
